Location: Terra Rouge Observatory
(46.0000°N, 62.7500°W)
Time: 09:06:10
(UTC-03:00)

Amateur Radio Satellites - All Passes

Search period start: 01 October 2016 08:36
Search period end: 02 October 2016 08:36
Location: Terra Rouge Observatory, 46.0000°N, 62.7500°W

Satellite Date Start Highest point End Downlink Frequencies (MHz)
Time Altitude Azimuth
BRITE-PL 01 Oct 08:41:51 08:43:26 12° 305° (NW) 08:44:59 437.365/2234.400
HO-68 01 Oct 08:45:10 08:52:03 47° 99° (E) 08:58:52 435.675
PRISM 01 Oct 08:49:44 08:53:48 51° 71° (ENE) 08:57:52 437.425
NOAA 18 01 Oct 08:52:37 08:57:35 37° 295° (WNW) 09:02:33 137.9125
NOAA 15 01 Oct 08:52:48 08:56:58 24° 299° (WNW) 09:01:08 137.62
CINEMA 3 01 Oct 08:57:58 09:02:10 78° 101° (E) 09:06:28 145.822/145.860
DANDE 01 Oct 09:00:38 09:05:48 18° 283° (WNW) 09:10:44 436.750
BEESAT 2 01 Oct 09:03:35 09:07:25 41° 47° (NE) 09:11:14 435.950
COMPASS 1 01 Oct 09:07:03 09:10:56 34° 97° (E) 09:14:47 437.405
CUTE-I 01 Oct 09:21:43 09:25:11 18° 302° (WNW) 09:28:39 437.470
Cubesat XI-IV 01 Oct 09:22:47 09:26:14 18° 302° (WNW) 09:29:41 437.490
ANTELSAT 01 Oct 09:23:48 09:26:38 18° 63° (ENE) 09:29:29 437.575/2403.000
Cosmos 2499 01 Oct 09:24:31 09:31:37 86° 277° (W) 09:38:47 435.465 / 435.565
FUNcube-1 01 Oct 09:28:15 09:31:26 19° 92° (E) 09:34:39 145.935
O/OREOS (USA 219) 01 Oct 09:28:50 09:29:58 11° 318° (NW) 09:31:06 437.305
BEESAT 3 01 Oct 09:37:59 09:41:50 48° 240° (WSW) 09:45:40 437.485
CUBEBUG 2 01 Oct 09:40:31 09:44:48 62° 101° (E) 09:49:13 437.445
SEEDS 01 Oct 09:42:26 09:46:42 68° 286° (WNW) 09:50:56 437.485
TIGRISAT 01 Oct 09:42:31 09:45:58 25° 66° (ENE) 09:49:27 435.000
CUTE 1.7 + AOD 2 01 Oct 09:48:05 09:52:10 43° 289° (WNW) 09:56:14 437.475
CANX-2 01 Oct 09:50:13 09:54:09 36° 291° (WNW) 09:58:05 2200.000
UWE-3 01 Oct 09:50:46 09:55:02 53° 100° (E) 09:59:23 435.000/436.395/437.385
AAUSAT CUBESAT 2 01 Oct 09:54:10 09:58:24 88° 102° (ESE) 10:02:35 437.432
Oscar 11 01 Oct 10:02:41 10:06:51 43° 98° (E) 10:11:01 145.826/435.025
ZACube-1 01 Oct 10:11:39 10:15:57 57° 100° (E) 10:20:20 437.345
GONETS M04 01 Oct 10:13:45 10:22:07 45° 289° (WNW) 10:30:33
AIST 2 01 Oct 10:20:44 10:23:29 17° 35° (NE) 10:26:14 435.215
UNISAT 6 01 Oct 10:23:27 10:27:41 69° 75° (ENE) 10:31:57 437.425
PRISM 01 Oct 10:26:51 10:29:24 16° 269° (W) 10:31:58 437.425
HO-68 01 Oct 10:33:08 10:39:39 40° 299° (WNW) 10:46:10 435.675
PCSat 01 Oct 10:35:37 10:37:35 12° 24° (NNE) 10:39:32 145.827
CINEMA 3 01 Oct 10:37:12 10:38:46 12° 300° (WNW) 10:40:20 145.822/145.860
BEESAT 2 01 Oct 10:41:51 10:45:01 23° 246° (WSW) 10:48:11 435.950
DELFI C3 01 Oct 10:42:13 10:46:06 46° 99° (E) 10:49:58 145.870
COMPASS 1 01 Oct 10:42:55 10:46:20 24° 294° (WNW) 10:49:43 437.405
DUCHIFAT 1 01 Oct 10:46:18 10:48:53 16° 62° (ENE) 10:51:27 145.980
PHONESAT 2.4 01 Oct 10:51:00 10:53:21 22° 168° (SSE) 10:55:42 2401.200-2431.200
QB50P1 01 Oct 10:52:02 10:55:10 21° 64° (ENE) 10:58:18 145.935-145.965
ANTELSAT 01 Oct 10:58:51 11:03:00 50° 260° (W) 11:07:10 437.575/2403.000
JAS-2 01 Oct 11:00:42 11:06:44 33° 59° (ENE) 11:13:17 435.910
FUNcube-1 01 Oct 11:03:43 11:07:52 45° 289° (WNW) 11:12:06 145.935
POPSAT HIP 1 01 Oct 11:05:26 11:08:58 27° 67° (ENE) 11:12:32 437.405
CUBEBUG 2 01 Oct 11:18:28 11:21:00 15° 298° (WNW) 11:23:35 437.445
TIGRISAT 01 Oct 11:18:41 11:22:32 33° 263° (W) 11:26:25 435.000
NANOSAT C BR1 01 Oct 11:18:43 11:22:32 35° 69° (ENE) 11:26:21 145.865
Cosmos 2499 01 Oct 11:21:37 11:25:58 17° 301° (WNW) 11:30:22 435.465 / 435.565
UWE-3 01 Oct 11:28:14 11:31:08 18° 297° (WNW) 11:34:05 435.000/436.395/437.385
AAUSAT CUBESAT 2 01 Oct 11:32:08 11:33:11 11° 301° (WNW) 11:34:15 437.432
HUMSAT D 01 Oct 11:34:42 11:38:59 89° 82° (E) 11:43:18 437.325/437.525
Oscar 11 01 Oct 11:39:26 11:42:43 21° 296° (WNW) 11:45:59 145.826/435.025
ESTCUBE 1 01 Oct 11:41:15 11:44:22 18° 91° (E) 11:47:28 437.505/2401.250
QB50P2 01 Oct 11:45:26 11:49:37 77° 76° (ENE) 11:53:50 145.880/145.840
POLYITAN 1 01 Oct 11:47:37 11:51:48 77° 73° (ENE) 11:55:59 437.675
ZACube-1 01 Oct 11:49:02 11:51:50 17° 297° (WNW) 11:54:41 437.345
AIST 2 01 Oct 11:58:21 12:02:34 90° 181° (S) 12:06:46 435.215
UNISAT 6 01 Oct 12:03:16 12:04:54 12° 271° (W) 12:06:34 437.425
YUBILEINY 01 Oct 12:05:44 12:10:33 16° 53° (NE) 12:15:20 435.215
BUGSAT 1 01 Oct 12:06:40 12:10:33 44° 71° (ENE) 12:14:25 437.445
AISAT 01 Oct 12:17:04 12:20:24 21° 93° (E) 12:23:43 437.250
PCSat 01 Oct 12:17:29 12:22:35 39° 48° (NE) 12:27:38 145.827
Oscar 19 01 Oct 12:17:41 12:21:07 18° 59° (ENE) 12:24:33 437.125/150
DELFI C3 01 Oct 12:17:56 12:20:36 17° 296° (WNW) 12:23:14 145.870
DUCHIFAT 1 01 Oct 12:20:04 12:24:09 55° 259° (W) 12:28:16 145.980
GONETS M04 01 Oct 12:21:15 12:21:54 10° 316° (NW) 12:22:33
PHONESAT 2.4 01 Oct 12:26:28 12:29:00 26° 185° (S) 12:31:32 2401.200-2431.200
QB50P1 01 Oct 12:26:43 12:30:41 41° 261° (W) 12:34:41 145.935-145.965
50 SAT 01 Oct 12:37:15 12:40:27 28° 96° (E) 12:43:39 437.505
DX 1 01 Oct 12:39:03 12:42:21 21° 93° (E) 12:45:38 434.975-435.025
POPSAT HIP 1 01 Oct 12:41:00 12:44:41 30° 264° (W) 12:48:25 437.405
JAS-2 01 Oct 12:44:42 12:51:18 58° 261° (W) 12:58:44 435.910
CUBEBUG 1 01 Oct 12:53:40 12:57:59 61° 101° (ESE) 13:02:15 437.445
NANOSAT C BR1 01 Oct 12:55:01 12:58:21 23° 266° (W) 13:01:41 145.865
VELOX 1 01 Oct 12:59:37 13:03:57 53° 100° (E) 13:08:14 145.980
AO-7 01 Oct 13:09:21 13:13:23 15° 38° (NE) 13:17:25 29.400- 29.500
HUMSAT D 01 Oct 13:12:40 13:13:57 11° 301° (WNW) 13:15:14 437.325/437.525
AUBIESAT-1 01 Oct 13:12:48 13:15:22 21° 101° (E) 13:17:57 437.475
SPROUT 01 Oct 13:16:05 13:20:13 46° 99° (E) 13:24:18 437.525
ESTCUBE 1 01 Oct 13:17:04 13:21:29 51° 289° (WNW) 13:25:52 437.505/2401.250
ITAMSAT 1 01 Oct 13:22:44 13:23:11 10° 52° (NE) 13:23:37 435.822/435.867
QB50P2 01 Oct 13:25:01 13:25:58 11° 272° (W) 13:26:55 145.880/145.840
POLYITAN 1 01 Oct 13:27:15 13:28:08 11° 272° (W) 13:29:01 437.675
UKube-1 01 Oct 13:38:06 13:42:25 66° 102° (ESE) 13:46:41 .
AIST 2 01 Oct 13:39:31 13:40:21 11° 252° (WSW) 13:41:13 435.215
BUGSAT 1 01 Oct 13:43:25 13:46:09 17° 268° (W) 13:48:52 437.445
Gurwin Techsat 1B 01 Oct 13:44:40 13:49:44 48° 69° (ENE) 13:54:50 435.225
AISAT 01 Oct 13:52:55 13:57:03 42° 291° (WNW) 14:01:10 437.250
M-CUBED/EXP-1 PRIME 01 Oct 13:53:10 13:56:27 88° 110° (ESE) 13:59:44 437.505
Oscar 19 01 Oct 13:54:41 13:59:52 73° 257° (WSW) 14:05:05 437.125/150
YUBILEINY 01 Oct 14:00:42 14:09:23 66° 77° (ENE) 14:18:01 435.215
PCSat 01 Oct 14:00:59 14:05:59 38° 247° (WSW) 14:10:57 145.827
Cosmos 2491 01 Oct 14:01:50 14:09:17 32° 82° (E) 14:16:46 435.465 / 435.565
PHONESAT 2.4 01 Oct 14:02:56 14:04:33 14° 201° (SSW) 14:06:09 2401.200-2431.200
50 SAT 01 Oct 14:10:56 14:13:49 22° 294° (WNW) 14:16:40 437.505
DX 1 01 Oct 14:14:37 14:18:43 41° 291° (WNW) 14:22:46 434.975-435.025
Cosmos 2504 01 Oct 14:20:29 14:27:17 36° 70° (ENE) 14:34:26 435.465 / 435.565
TISAT 1 01 Oct 14:22:12 14:26:15 47° 100° (E) 14:30:17 437.305
CUBEBUG 1 01 Oct 14:31:13 14:33:48 16° 299° (WNW) 14:36:21 437.445
VELOX 1 01 Oct 14:37:03 14:40:01 18° 298° (WNW) 14:42:59 145.980
JAS-2 01 Oct 14:37:45 14:38:08 10° 283° (WNW) 14:38:31 435.910
SO-50 01 Oct 14:44:57 14:49:34 46° 119° (ESE) 14:54:07 436.795
AUBIESAT-1 01 Oct 14:47:06 14:49:51 25° 297° (WNW) 14:52:37 437.475
SPROUT 01 Oct 14:52:48 14:55:50 19° 297° (WNW) 14:58:50 437.525
AO-7 01 Oct 14:56:22 15:04:17 51° 61° (ENE) 15:12:12 29.400- 29.500
ITAMSAT 1 01 Oct 14:56:31 15:01:36 61° 71° (ENE) 15:06:44 435.822/435.867
ITUPSAT 1 01 Oct 14:59:51 15:03:49 25° 94° (E) 15:07:45 437.325
SWISSCUBE 01 Oct 15:10:26 15:14:50 35° 97° (E) 15:19:13 437.505
UKube-1 01 Oct 15:15:32 15:17:57 15° 300° (WNW) 15:20:21 .
BEESAT 01 Oct 15:22:51 15:27:24 41° 98° (E) 15:31:55 436.000
Gurwin Techsat 1B 01 Oct 15:25:34 15:29:55 25° 267° (W) 15:34:17 435.225
AIST 1 01 Oct 15:29:11 15:32:34 22° 70° (ENE) 15:35:54
Cosmos 2491 01 Oct 15:56:51 16:05:33 63° 284° (WNW) 16:14:21 435.465 / 435.565
YUBILEINY 01 Oct 15:58:22 16:05:33 30° 278° (W) 16:12:43 435.215
TISAT 1 01 Oct 15:58:42 16:01:33 18° 297° (WNW) 16:04:24 437.305
KKS-1 01 Oct 16:11:07 16:13:34 15° 90° (E) 16:16:01 437.445
O/OREOS (USA 219) 01 Oct 16:13:25 16:17:52 45° 60° (ENE) 16:22:16 437.305
Cosmos 2504 01 Oct 16:13:43 16:20:51 50° 269° (W) 16:28:29 435.465 / 435.565
MOZHAYETS 4 01 Oct 16:13:54 16:17:50 26° 94° (E) 16:21:44
SO-50 01 Oct 16:25:54 16:30:11 31° 318° (NW) 16:34:27 436.795
HORYU 2 01 Oct 16:30:52 16:34:29 25° 65° (ENE) 16:38:07 437.375
STARS 01 Oct 16:34:12 16:35:55 12° 89° (E) 16:37:37 437.465
BRITE-PL 01 Oct 16:36:10 16:40:26 23° 62° (ENE) 16:44:35 437.365/2234.400
ITUPSAT 1 01 Oct 16:37:16 16:41:48 42° 291° (WNW) 16:46:19 437.325
ITAMSAT 1 01 Oct 16:37:52 16:41:30 19° 269° (W) 16:45:09 435.822/435.867
SWISSCUBE 01 Oct 16:48:21 16:52:32 30° 295° (WNW) 16:56:42 437.505
AO-7 01 Oct 16:49:27 16:57:11 42° 261° (W) 17:04:59 29.400- 29.500
NOAA 15 01 Oct 16:57:31 17:00:59 18° 58° (ENE) 17:04:27 137.62
BEESAT 01 Oct 17:01:02 17:04:59 26° 296° (WNW) 17:08:56 436.000
NOAA 18 01 Oct 17:03:23 17:06:17 15° 54° (NE) 17:09:11 137.9125
AIST 1 01 Oct 17:06:21 17:10:17 35° 268° (W) 17:14:08
CUTE-I 01 Oct 17:26:15 17:30:29 25° 62° (ENE) 17:34:44 437.470
Cubesat XI-IV 01 Oct 17:27:24 17:31:39 25° 62° (ENE) 17:35:57 437.490
HO-68 01 Oct 17:35:20 17:37:00 11° 42° (NE) 17:38:40 435.675
GOMX 1 01 Oct 17:42:06 17:46:50 35° 69° (ENE) 17:51:21 467.674
CUBESAT XI-V 01 Oct 17:44:32 17:48:42 31° 95° (E) 17:52:49 437.345
DOVE 4 01 Oct 17:44:39 17:47:41 17° 62° (ENE) 17:50:36 437.250
KKS-1 01 Oct 17:46:10 17:50:33 62° 288° (WNW) 17:54:54 437.445
MOZHAYETS 4 01 Oct 17:50:48 17:55:04 37° 292° (WNW) 17:59:20
O/OREOS (USA 219) 01 Oct 17:53:28 17:56:58 22° 258° (WSW) 18:00:25 437.305
Cosmos 2491 01 Oct 17:59:55 18:04:35 15° 309° (NW) 18:09:16 435.465 / 435.565
HORYU 2 01 Oct 18:06:49 18:10:53 36° 262° (W) 18:14:59 437.375
STARS 01 Oct 18:08:24 18:12:46 73° 287° (WNW) 18:17:08 437.465
SO-50 01 Oct 18:11:17 18:12:10 10° 341° (NNW) 18:13:02 436.795
BRITE-PL 01 Oct 18:12:51 18:18:28 63° 259° (W) 18:23:56 437.365/2234.400
CUSAT 1 01 Oct 18:15:34 18:21:26 31° 84° (E) 18:28:05 437.405
LilacSat-2 01 Oct 18:22:53 18:26:36 66° 74° (ENE) 18:30:23 437.200
GONETS M04 01 Oct 18:24:06 18:31:16 27° 62° (ENE) 18:38:21
CINEMA 3 01 Oct 18:28:25 18:29:40 11° 59° (ENE) 18:30:54 145.822/145.860
NOAA 15 01 Oct 18:34:50 18:40:09 77° 257° (WSW) 18:45:30 137.62
NOAA 18 01 Oct 18:40:40 18:46:08 83° 72° (ENE) 18:51:37 137.9125
DANDE 01 Oct 18:45:30 18:49:42 20° 78° (ENE) 18:54:33 436.750
RS-15 01 Oct 18:51:20 19:01:19 35° 105° (ESE) 19:11:42 29.354- 29.394
SEEDS 01 Oct 19:03:12 19:05:08 13° 60° (ENE) 19:07:05 437.485
CUTE-I 01 Oct 19:05:03 19:10:12 52° 260° (W) 19:15:25 437.470
Cubesat XI-IV 01 Oct 19:06:16 19:11:26 51° 260° (W) 19:16:38 437.490
CUTE 1.7 + AOD 2 01 Oct 19:08:12 19:11:17 20° 64° (ENE) 19:14:24 437.475
ISS 01 Oct 19:09:22 19:11:58 22° 138° (SE) 19:14:35 145.825
CANX-2 01 Oct 19:09:58 19:13:20 23° 66° (ENE) 19:16:44 2200.000
Cosmos 2499 01 Oct 19:11:20 19:18:24 40° 71° (ENE) 19:25:57 435.465 / 435.565
HO-68 01 Oct 19:16:15 19:22:58 46° 63° (ENE) 19:29:42 435.675
DOVE 4 01 Oct 19:20:06 19:24:57 65° 258° (WSW) 19:29:34 437.250
GOMX 1 01 Oct 19:20:09 19:24:54 33° 264° (W) 19:29:26 467.674
CUBESAT XI-V 01 Oct 19:21:54 19:26:03 32° 293° (WNW) 19:30:10 437.345
CUSAT 1 01 Oct 19:56:08 20:02:55 61° 286° (WNW) 20:10:48 437.405
COMPASS 1 01 Oct 20:00:00 20:03:44 32° 68° (ENE) 20:07:30 437.405
LilacSat-2 01 Oct 20:01:11 20:01:21 10° 272° (W) 20:01:31 437.200
CINEMA 3 01 Oct 20:01:50 20:06:12 86° 253° (WSW) 20:10:28 145.822/145.860
NOAA 15 01 Oct 20:19:51 20:20:48 10° 274° (W) 20:21:44 137.62
GONETS M04 01 Oct 20:20:17 20:29:07 78° 265° (W) 20:37:50
NOAA 18 01 Oct 20:24:30 20:27:28 15° 271° (W) 20:30:27 137.9125
DANDE 01 Oct 20:25:28 20:31:15 79° 282° (WNW) 20:38:49 436.750
AO-85 01 Oct 20:25:45 20:30:38 44° 119° (ESE) 20:35:16 145.980
FUNcube-1 01 Oct 20:26:33 20:29:33 20° 64° (ENE) 20:32:35 145.935
STRAND 1 01 Oct 20:27:31 20:32:38 62° 101° (E) 20:37:44 437.568
SEEDS 01 Oct 20:36:03 20:40:16 74° 259° (WSW) 20:44:32 437.485
CUBEBUG 2 01 Oct 20:41:00 20:45:08 68° 75° (ENE) 20:49:16 437.445
CUTE 1.7 + AOD 2 01 Oct 20:42:46 20:46:50 44° 262° (W) 20:50:57 437.475
ISS 01 Oct 20:44:59 20:48:13 64° 336° (NNW) 20:51:28 145.825
CANX-2 01 Oct 20:45:05 20:49:01 36° 263° (W) 20:52:59 2200.000
AAUSAT CUBESAT 2 01 Oct 20:46:16 20:50:26 79° 75° (ENE) 20:54:38 437.432
UWE-3 01 Oct 20:50:09 20:54:12 56° 73° (ENE) 20:58:17 435.000/436.395/437.385
Oscar 11 01 Oct 20:59:33 21:03:40 45° 71° (ENE) 21:07:48 145.826/435.025
RS-15 01 Oct 21:00:58 21:12:43 78° 309° (NW) 21:25:06 29.354- 29.394
HO-68 01 Oct 21:04:06 21:10:45 40° 262° (W) 21:17:27 435.675
Cosmos 2499 01 Oct 21:04:26 21:11:37 47° 270° (W) 21:19:20 435.465 / 435.565
ZACube-1 01 Oct 21:09:47 21:13:50 58° 73° (ENE) 21:17:57 437.345
DELFI C3 01 Oct 21:30:08 21:33:50 37° 70° (ENE) 21:37:35 145.870
SO-50 01 Oct 21:34:19 21:37:27 17° 31° (NNE) 21:40:31 436.795
COMPASS 1 01 Oct 21:35:51 21:39:19 25° 266° (W) 21:42:50 437.405
CUSAT 1 01 Oct 21:42:41 21:46:49 15° 309° (NW) 21:51:10 437.405
FUNcube-1 01 Oct 22:01:38 22:05:32 41° 262° (W) 22:09:30 145.935
PRISM 01 Oct 22:03:50 22:07:57 59° 102° (ESE) 22:11:59 437.425
AO-85 01 Oct 22:06:38 22:11:13 33° 316° (NW) 22:15:32 145.980
STRAND 1 01 Oct 22:07:37 22:11:22 21° 300° (WNW) 22:15:07 437.568
DANDE 01 Oct 22:11:28 22:15:41 18° 308° (NW) 22:20:27 436.750
UNISAT 6 01 Oct 22:14:10 22:16:02 12° 89° (E) 22:17:54 437.425
GONETS M04 01 Oct 22:19:20 22:24:24 17° 286° (WNW) 22:29:25
CUBEBUG 2 01 Oct 22:20:49 22:22:15 11° 272° (W) 22:23:41 437.445
ISS 01 Oct 22:22:10 22:25:06 29° 356° (N) 22:28:02 145.825
AAUSAT CUBESAT 2 01 Oct 22:25:53 22:26:28 10° 273° (W) 22:27:02 437.432
HUMSAT D 01 Oct 22:28:01 22:32:06 83° 79° (ENE) 22:36:16 437.325/437.525
UWE-3 01 Oct 22:28:52 22:31:02 14° 270° (W) 22:33:14 435.000/436.395/437.385
Oscar 11 01 Oct 22:36:57 22:40:01 19° 268° (W) 22:43:07 145.826/435.025
ESTCUBE 1 01 Oct 22:42:59 22:46:34 23° 64° (ENE) 22:50:10 437.505/2401.250
ANTELSAT 01 Oct 22:47:50 22:51:37 27° 95° (E) 22:55:27 437.575/2403.000
ZACube-1 01 Oct 22:48:28 22:50:33 13° 271° (W) 22:52:38 437.345
DELFI C3 01 Oct 23:05:51 23:08:49 20° 268° (W) 23:11:48 145.870
TIGRISAT 01 Oct 23:06:51 23:11:01 39° 98° (E) 23:15:15 435.000
M-CUBED/EXP-1 PRIME 01 Oct 23:08:35 23:11:08 17° 60° (ENE) 23:13:35 437.505
SO-50 01 Oct 23:14:03 23:18:41 80° 54° (NE) 23:23:10 436.795
50 SAT 01 Oct 23:16:35 23:19:13 19° 65° (ENE) 23:21:54 437.505
AISAT 01 Oct 23:16:35 23:20:17 26° 65° (ENE) 23:24:00 437.250
RS-15 01 Oct 23:16:41 23:27:32 37° 339° (NNW) 23:38:45 29.354- 29.394
QB50P2 01 Oct 23:30:39 23:31:19 10° 88° (E) 23:31:59 145.880/145.840
BEESAT 3 01 Oct 23:32:08 23:34:11 14° 111° (ESE) 23:36:15 437.485
POLYITAN 1 01 Oct 23:32:48 23:33:28 10° 88° (E) 23:34:09 437.675
DX 1 01 Oct 23:36:46 23:40:23 26° 65° (ENE) 23:44:01 434.975-435.025
PRISM 01 Oct 23:40:24 23:42:46 15° 299° (WNW) 23:45:08 437.425
UNISAT 6 01 Oct 23:48:48 23:53:14 74° 284° (WNW) 23:57:45 437.425
CUBEBUG 1 01 Oct 23:51:34 23:55:58 69° 73° (ENE) 00:00:21 437.445
JAS-2 01 Oct 23:52:07 23:58:21 25° 88° (E) 00:04:15 435.910
AO-85 01 Oct 23:52:15 23:53:02 10° 338° (NNW) 23:53:49 145.980
VELOX 1 01 Oct 23:58:55 00:03:19 65° 73° (ENE) 00:07:44 145.980
ISS 01 Oct 23:58:58 00:02:06 40° 16° (NNE) 00:05:13 145.825
AUBIESAT-1 02 Oct 00:00:19 00:04:03 48° 67° (ENE) 00:07:33 437.475
DUCHIFAT 1 02 Oct 00:02:15 00:05:17 19° 93° (E) 00:08:17 145.980
Cosmos 2491 02 Oct 00:08:27 00:14:22 19° 56° (NE) 00:20:14 435.465 / 435.565
QB50P1 02 Oct 00:08:58 00:12:30 25° 95° (E) 00:16:01 145.935-145.965
SPROUT 02 Oct 00:11:42 00:15:47 48° 71° (ENE) 00:19:54 437.525
ESTCUBE 1 02 Oct 00:18:50 00:23:08 42° 262° (W) 00:27:28 437.505/2401.250
POPSAT HIP 1 02 Oct 00:22:42 00:26:34 34° 97° (E) 00:30:26 437.405
ANTELSAT 02 Oct 00:24:21 00:28:21 34° 292° (WNW) 00:32:26 437.575/2403.000
UKube-1 02 Oct 00:34:37 00:38:56 76° 74° (ENE) 00:43:17 .
BEESAT 2 02 Oct 00:35:09 00:38:40 31° 117° (ESE) 00:42:12 435.950
NANOSAT C BR1 02 Oct 00:35:44 00:39:48 45° 99° (E) 00:43:51 145.865
M-CUBED/EXP-1 PRIME 02 Oct 00:41:37 00:45:26 44° 254° (WSW) 00:49:00 437.505
TIGRISAT 02 Oct 00:43:58 00:47:31 24° 295° (WNW) 00:51:07 435.000
50 SAT 02 Oct 00:49:11 00:52:30 33° 263° (W) 00:55:51 437.505
AISAT 02 Oct 00:52:33 00:56:38 35° 263° (W) 01:00:42 437.250
SO-50 02 Oct 00:56:14 00:58:29 14° 251° (WSW) 01:00:42 436.795
QB50P2 02 Oct 01:03:25 01:07:40 80° 284° (WNW) 01:11:54 145.880/145.840
POLYITAN 1 02 Oct 01:05:35 01:09:49 80° 284° (WNW) 01:14:03 437.675
BEESAT 3 02 Oct 01:07:28 01:11:21 63° 308° (NW) 01:15:17 437.485
DX 1 02 Oct 01:12:26 01:16:26 34° 263° (W) 01:20:27 434.975-435.025
YUBILEINY 02 Oct 01:13:44 01:17:48 14° 72° (ENE) 01:21:52 435.215
TISAT 1 02 Oct 01:15:54 01:19:56 48° 71° (ENE) 01:23:58 437.305
BUGSAT 1 02 Oct 01:20:54 01:24:52 53° 100° (E) 01:28:49 437.445
CUBEBUG 1 02 Oct 01:30:40 01:32:43 13° 271° (W) 01:34:45 437.445
RS-15 02 Oct 01:33:44 01:44:34 34° 14° (NNE) 01:55:26 29.354- 29.394
ISS 02 Oct 01:35:29 01:38:40 49° 215° (SW) 01:41:51 145.825
JAS-2 02 Oct 01:36:11 01:44:06 77° 288° (WNW) 01:51:31 435.910
AUBIESAT-1 02 Oct 01:36:32 01:38:42 14° 261° (W) 01:40:48 437.475
DUCHIFAT 1 02 Oct 01:37:12 01:41:10 42° 290° (WNW) 01:45:08 145.980
VELOX 1 02 Oct 01:37:51 01:40:12 14° 270° (W) 01:42:35 145.980
QB50P1 02 Oct 01:44:33 01:48:18 32° 292° (WNW) 01:52:04 145.935-145.965
SPROUT 02 Oct 01:49:09 01:51:59 17° 268° (W) 01:54:50 437.525
POPSAT HIP 1 02 Oct 01:58:47 02:02:12 24° 294° (WNW) 02:05:37 437.405
Gurwin Techsat 1B 02 Oct 01:59:34 02:02:37 15° 89° (E) 02:05:41 435.225
Oscar 19 02 Oct 02:03:59 02:08:37 32° 96° (E) 02:13:12 437.125/150
Cosmos 2491 02 Oct 02:04:00 02:12:54 77° 80° (E) 02:21:43 435.465 / 435.565
ITUPSAT 1 02 Oct 02:08:46 02:13:09 38° 67° (ENE) 02:17:35 437.325
NANOSAT C BR1 02 Oct 02:12:15 02:15:14 19° 296° (WNW) 02:18:12 145.865
BEESAT 2 02 Oct 02:12:54 02:16:27 31° 316° (NW) 02:20:03 435.950
UKube-1 02 Oct 02:14:06 02:15:30 11° 271° (W) 02:16:55 .
SWISSCUBE 02 Oct 02:19:02 02:23:39 53° 71° (ENE) 02:28:19 437.505
BEESAT 02 Oct 02:31:25 02:36:06 62° 72° (ENE) 02:40:50 436.000
BEESAT 3 02 Oct 02:48:04 02:49:48 12° 329° (NNW) 02:51:32 437.485
TISAT 1 02 Oct 02:53:10 02:55:52 17° 269° (W) 02:58:33 437.305
BUGSAT 1 02 Oct 02:57:27 02:59:51 15° 298° (WNW) 03:02:14 437.445
AO-7 02 Oct 02:59:01 03:00:52 11° 83° (E) 03:02:43 29.400- 29.500
PCSat 02 Oct 03:03:13 03:06:55 19° 106° (ESE) 03:10:39 145.827
Cosmos 2504 02 Oct 03:03:48 03:09:26 25° 82° (E) 03:15:00 435.465 / 435.565
YUBILEINY 02 Oct 03:04:11 03:12:51 69° 93° (E) 03:21:31 435.215
ITAMSAT 1 02 Oct 03:07:50 03:11:18 18° 90° (E) 03:14:45 435.822/435.867
KKS-1 02 Oct 03:11:19 03:14:30 20° 62° (ENE) 03:17:41 437.445
AO-85 02 Oct 03:15:58 03:18:19 14° 29° (NNE) 03:20:34 145.980
MOZHAYETS 4 02 Oct 03:18:01 03:22:06 33° 67° (ENE) 03:26:14
JAS-2 02 Oct 03:22:31 03:27:51 20° 308° (NW) 03:33:04 435.910
STARS 02 Oct 03:32:53 03:35:34 16° 61° (ENE) 03:38:17 437.465
AIST 2 02 Oct 03:35:52 03:39:59 85° 121° (ESE) 03:44:09 435.215
Gurwin Techsat 1B 02 Oct 03:37:51 03:43:11 78° 287° (WNW) 03:48:30 435.225
Oscar 19 02 Oct 03:43:17 03:47:57 36° 294° (WNW) 03:52:35 437.125/150
ITUPSAT 1 02 Oct 03:47:02 03:51:04 27° 265° (W) 03:55:09 437.325
RS-15 02 Oct 03:47:47 04:00:07 64° 45° (NE) 04:12:14 29.354- 29.394
SWISSCUBE 02 Oct 03:58:21 04:01:46 19° 268° (W) 04:05:12 437.505
Cosmos 2491 02 Oct 04:02:02 04:08:48 26° 281° (W) 04:15:32 435.465 / 435.565
AIST 1 02 Oct 04:03:13 04:04:45 12° 82° (E) 04:06:17
BEESAT 02 Oct 04:11:21 04:14:19 16° 270° (W) 04:17:19 436.000
PCSat 02 Oct 04:44:20 04:49:45 71° 305° (NW) 04:55:12 145.827
ITAMSAT 1 02 Oct 04:46:03 04:51:15 67° 288° (WNW) 04:56:26 435.822/435.867
KKS-1 02 Oct 04:46:25 04:50:43 49° 260° (W) 04:55:04 437.445
CUSAT 1 02 Oct 04:47:05 04:53:29 28° 61° (ENE) 04:59:00 437.405
AO-7 02 Oct 04:47:14 04:55:25 59° 103° (ESE) 05:03:34 29.400- 29.500
CUBESAT XI-V 02 Oct 04:49:54 04:54:16 40° 69° (ENE) 04:58:41 437.345
Cosmos 2504 02 Oct 04:54:59 05:02:12 63° 282° (WNW) 05:09:20 435.465 / 435.565
MOZHAYETS 4 02 Oct 04:55:18 04:59:17 29° 265° (W) 05:03:17
AO-85 02 Oct 04:55:24 04:59:37 69° 51° (NE) 05:03:33 145.980
YUBILEINY 02 Oct 05:02:57 05:10:24 30° 295° (WNW) 05:17:53 435.215
STARS 02 Oct 05:07:09 05:11:28 60° 258° (WSW) 05:15:49 437.465
AIST 2 02 Oct 05:16:17 05:19:01 17° 325° (NW) 05:21:48 435.215
DANDE 02 Oct 05:18:58 05:25:48 27° 60° (ENE) 05:32:13 436.750
Gurwin Techsat 1B 02 Oct 05:19:51 05:22:16 13° 305° (NW) 05:24:42 435.225
AIST 1 02 Oct 05:37:21 05:41:44 71° 280° (W) 05:46:06
HORYU 2 02 Oct 05:54:50 05:58:54 34° 97° (E) 06:02:57 437.375
RS-15 02 Oct 06:00:50 06:12:22 49° 250° (WSW) 06:23:39 29.354- 29.394
STRAND 1 02 Oct 06:09:06 06:12:21 17° 58° (ENE) 06:15:39 437.568
BRITE-PL 02 Oct 06:16:08 06:20:26 34° 95° (E) 06:24:27 437.365/2234.400
CUBESAT XI-V 02 Oct 06:27:55 06:31:46 25° 267° (W) 06:35:41 437.345
ITAMSAT 1 02 Oct 06:28:14 06:29:45 11° 307° (NW) 06:31:18 435.822/435.867
O/OREOS (USA 219) 02 Oct 06:28:23 06:32:25 32° 105° (ESE) 06:36:31 437.305
CUSAT 1 02 Oct 06:28:44 06:36:15 66° 265° (W) 06:42:20 437.405
PCSat 02 Oct 06:30:33 06:34:08 18° 326° (NNW) 06:37:45 145.827
AO-85 02 Oct 06:37:33 06:39:23 13° 251° (WSW) 06:41:11 145.980
AO-7 02 Oct 06:40:28 06:47:52 38° 304° (NW) 06:55:16 29.400- 29.500
NOAA 15 02 Oct 06:47:44 06:52:31 33° 96° (E) 06:57:13 137.62
Cosmos 2504 02 Oct 06:54:35 06:57:16 12° 306° (NW) 06:59:59 435.465 / 435.565
NOAA 18 02 Oct 07:00:33 07:05:14 28° 95° (E) 07:09:54 137.9125
DANDE 02 Oct 07:01:09 07:09:38 84° 261° (W) 07:17:13 436.750
BEESAT 2 02 Oct 07:14:49 07:15:23 10° 27° (NNE) 07:15:58 435.950
DOVE 4 02 Oct 07:16:57 07:20:24 25° 94° (E) 07:23:49 437.250
GOMX 1 02 Oct 07:19:13 07:23:32 63° 100° (E) 07:27:40 467.674
CUTE-I 02 Oct 07:19:16 07:24:32 52° 100° (E) 07:29:44 437.470
Cubesat XI-IV 02 Oct 07:20:40 07:25:55 53° 100° (E) 07:31:10 437.490
LilacSat-2 02 Oct 07:27:45 07:31:37 72° 102° (ESE) 07:35:27 437.200
GONETS M04 02 Oct 07:29:38 07:36:32 27° 80° (E) 07:43:26
HORYU 2 02 Oct 07:31:35 07:35:21 27° 294° (WNW) 07:39:07 437.375
BEESAT 3 02 Oct 07:45:07 07:48:22 23° 41° (NE) 07:51:35 437.485
STRAND 1 02 Oct 07:45:52 07:50:57 74° 257° (WSW) 07:56:06 437.568
Cosmos 2499 02 Oct 07:52:54 07:58:31 26° 83° (E) 08:04:09 435.465 / 435.565
CINEMA 3 02 Oct 07:54:33 07:57:22 17° 92° (E) 08:00:13 145.822/145.860
BRITE-PL 02 Oct 07:54:51 07:58:48 27° 296° (WNW) 08:02:31 437.365/2234.400
O/OREOS (USA 219) 02 Oct 08:07:43 08:11:48 31° 304° (NW) 08:15:57 437.305
CUSAT 1 02 Oct 08:13:49 08:16:27 12° 287° (WNW) 08:18:56 437.405
SEEDS 02 Oct 08:18:32 08:21:11 16° 90° (E) 08:23:48 437.485
CUTE 1.7 + AOD 2 02 Oct 08:25:17 08:28:56 26° 94° (E) 08:32:33 437.475
CANX-2 02 Oct 08:27:22 08:31:15 31° 96° (E) 08:35:05 2200.000
AAUSAT CUBESAT 2 02 Oct 08:28:42 08:29:31 10° 87° (E) 08:30:22 437.432
CUBEBUG 2 02 Oct 08:30:46 08:32:30 12° 89° (E) 08:34:14 437.445
